Location: Newark
(36.2350°N, 59.6408°E)
Time: 18:43:35
(UTC+00:00)

ISS - Pass Details

Date: 21 November 2019
Orbit: 411 x 421 km, 51.6° (Epoch: 15 December)

Event Time Altitude Azimuth Distance (km) Brightness Sun altitude
Rises 13:27:37 0° 199° (SSW) 2,335 0.6 -7.8°
Reaches altitude 10° 13:29:58 10° 184° (S) 1,480 -0.7 -8.3°
Maximum altitude 13:32:39 23° 130° (SE) 943 -2.3 -8.8°
Enters shadow 13:34:52 13° 82° (E) 1,340 -1.9 -9.2°
